Flag for Poland Weather past 2 weeks in Toruń, Poland

Now
39 °F

Sprinkles. Overcast.


Feels Like: 35 °F
Forecast: 35 / 43 °F
Wind: 6 mph from West

Location: Torun

Current Time: Apr 1, 2015 at 1:31:07 PM

Latest Report: Apr 1, 2015 at 12:00 PM


Visibility: 10 mi

Pressure: 29.44 "Hg

Humidity: 86%

Dew point: 35 °F

Location of ToruńLocation

Historic Weather in Toruń — Graph

°F

Toruń temperature yesterday

Maximum temperature yesterday: 44 °F (at 6:00 PM)
Minimum temperature yesterday: 35 °F (at 2:00 PM)
Average temperature yesterday: 40 °F

Past Weeks' High & Low Weather Summary

 TemperatureHumidityPressure
High61 °F (Mar 25, 2:00 PM)100% (Mar 28, 3:00 AM)30.67 "Hg (Mar 28, 3:00 AM)
Low21 °F (Mar 20, 6:00 AM)21% (Mar 18, 3:00 PM)29.00 "Hg (Mar 30, 6:00 AM)
Average42 °F67%29.92 "Hg
* Reported Mar 17 11:00 AM — Apr 1 12:00 Noon, Toruń, Weather by CustomWeather, © 2015

Note: Actual official high and low records may vary slightly from our data, if they occured in-between our weather recording intervals... More about our weather records

Advertising

Toruń weather history for previous 24 hours

 ConditionsComfort  
Time TempWeatherWind HumidityBarometerVisibility
12:00 PM
Wed, Apr 1
39 °FSprinkles. Overcast.6 mph86%29.44 "Hg10 mi
11:00 AM38 °FSprinkles. Overcast.5 mph89%29.41 "Hg4 mi
10:00 AM39 °FOvercast.6 mph84%29.38 "Hg22 mi
9:00 AM37 °FOvercast.5 mph91%29.35 "Hg15 mi
8:00 AM36 °FSprinkles. Low clouds.3 mph92%29.35 "Hg6 mi
7:00 AM36 °FLight rain. Low clouds.5 mph93%29.29 "Hg7 mi
6:00 AM36 °FOvercast.5 mph92%29.26 "Hg7 mi
5:00 AM36 °FOvercast.5 mph91%29.23 "Hg7 mi
4:00 AM36 °FSprinkles. Overcast.6 mph91%29.18 "Hg11 mi
3:00 AM37 °FSprinkles. Overcast.7 mph90%29.15 "Hg11 mi
2:00 AM37 °FSprinkles. Overcast.7 mph91%29.12 "Hg5 mi
1:00 AM38 °FSprinkles. Overcast.6 mph86%29.06 "Hg9 mi
12:00 AM40 °FOvercast.6 mph84%29.09 "Hg31 mi
10:00 PM
Tue, Mar 31
42 °FSprinkles. Overcast.5 mph90%29.06 "Hg9 mi
9:00 PM43 °FSprinkles. Overcast.5 mph90%29.06 "Hg9 mi
8:00 PM43 °FSprinkles. Overcast.5 mph91%29.06 "Hg28 mi
7:00 PM44 °FSprinkles. Overcast.3 mph89%29.03 "Hg16 mi
6:00 PM44 °FSprinkles. Overcast.3 mph91%29.00 "Hg6 mi
5:00 PM42 °FPartly sunny.2 mph94%29.03 "Hg5 mi
4:00 PM37 °FLight rain. Low clouds.5 mph95%29.06 "Hg6 mi
3:00 PM35 °FLight rain. Low clouds.6 mph93%29.09 "Hg2 mi
2:00 PM35 °FLight rain. Low clouds.6 mph93%29.12 "Hg4 mi
1:00 PM36 °FLight rain. Low clouds.7 mph89%29.18 "Hg3 mi
Weather by CustomWeather, © 2015

See weather overviewHow to use our weather pages